Overview Statistics Trail Chart Weather Telemetry Raw packets
 

This is the latest recevied weather packets stored in our database for station/object HS3UAA-1. If no packets are shown the sender has not sent any weather packets the latest 10 day(s).

<< 46 47 48 49 50 51 52 >>
Time Temp. Humidity Pressure Rain* Wind** Luminosity Snow
1788314919 28.33° C 43% 998 hPa - - 0 W/m² -
1788314597 28.33° C 44% 998 hPa - - 0 W/m² -
1788314275 28.33° C 45% 998 hPa - - 0 W/m² -
1788313953 28.33° C 46% 998 hPa - - 0 W/m² -
1788313631 28.33° C 50% 998 hPa - - 0 W/m² -
1788313309 28.33° C 45% 998 hPa - - 0 W/m² -
1788312974 28.33° C 45% 998 hPa - - 0 W/m² -
1788312652 28.33° C 46% 998 hPa - - 0 W/m² -
1788312330 28.33° C 48% 998 hPa - - 0 W/m² -
1788312008 28.33° C 50% 998 hPa - - 0 W/m² -
1788311686 28.33° C 47% 998 hPa - - 0 W/m² -
1788311364 28.33° C 50% 997 hPa - - 0 W/m² -
1788311042 28.33° C 47% 997 hPa - - 0 W/m² -
1788310720 28.89° C 49% 997 hPa - - 0 W/m² -
1788310398 28.33° C 47% 997 hPa - - 0 W/m² -
1788310076 28.89° C 46% 997 hPa - - 0 W/m² -
1788309754 28.89° C 50% 997 hPa - - 0 W/m² -
1788309432 28.89° C 51% 998 hPa - - 0 W/m² -
1788309110 28.89° C 48% 998 hPa - - 0 W/m² -
1788308788 28.89° C 48% 997 hPa - - 0 W/m² -
1788308466 29.44° C 48% 997 hPa - - 0 W/m² -
1788308060 29.44° C 45% 997 hPa - - 0 W/m² -
1788307737 30.56° C 45% 997 hPa - - 0 W/m² -
1788307415 31.67° C 48% 997 hPa - - 0 W/m² -
1788307093 31.11° C 51% 997 hPa - - 0 W/m² -

* Rain since midnight (hover to see other rain measurements)
** Current wind speed in m/s (hover to see current wind gust speed)